Meteo pe oră la Buenos Aires

Astăzi, 25 Februarie, Joi

Timp Temperatura Precipitaţii Vânt Presiune Umiditate
00:00 +27°C° 0 mm 3 m/s 759 mmHg 35%
01:00 +26°C° 0 mm 3 m/s 759 mmHg 36%
02:00 +26°C° 0 mm 3 m/s 759 mmHg 37%
03:00 +25°C° 0 mm 3 m/s 759 mmHg 38%
04:00 +25°C° 0 mm 3 m/s 759 mmHg 39%
05:00 +24°C° 0 mm 3 m/s 759 mmHg 39%
06:00 +25°C° 0 mm 3 m/s 759 mmHg 39%
07:00 +26°C° 0 mm 3 m/s 760 mmHg 38%
08:00 +27°C° 0 mm 4 m/s 760 mmHg 37%
09:00 +29°C° 0 mm 3 m/s 760 mmHg 31%
10:00 +33°C° 0 mm 3 m/s 760 mmHg 25%
11:00 +35°C° 0 mm 2 m/s 760 mmHg 20%
12:00 +37°C° 0 mm 2 m/s 759 mmHg 18%
13:00 +38°C° 0 mm 2 m/s 759 mmHg 16%
14:00 +39°C° 0 mm 2 m/s 758 mmHg 14%
15:00 +38°C° 0 mm 2 m/s 758 mmHg 14%
16:00 +37°C° 0 mm 3 m/s 757 mmHg 14%
17:00 +36°C° 0 mm 3 m/s 757 mmHg 15%
18:00 +35°C° 0 mm 3 m/s 757 mmHg 18%
19:00 +33°C° 0 mm 4 m/s 758 mmHg 21%
20:00 +32°C° 0 mm 5 m/s 758 mmHg 24%
21:00 +32°C° 0 mm 5 m/s 758 mmHg 27%
22:00 +30°C° 0 mm 5 m/s 758 mmHg 29%
23:00 +30°C° 0 mm 5 m/s 759 mmHg 32%

Mâine, 26 Februarie, Vineri

Timp Temperatura Precipitaţii Vânt Presiune Umiditate
00:00 +29°C° 0 mm 6 m/s 758 mmHg 33%
01:00 +28°C° 0 mm 6 m/s 758 mmHg 34%
02:00 +28°C° 0 mm 6 m/s 758 mmHg 35%
03:00 +27°C° 0 mm 6 m/s 758 mmHg 37%
04:00 +26°C° 0 mm 6 m/s 759 mmHg 39%
05:00 +26°C° 0 mm 6 m/s 759 mmHg 41%
06:00 +27°C° 0 mm 5 m/s 759 mmHg 40%
07:00 +27°C° 0 mm 5 m/s 759 mmHg 39%
08:00 +28°C° 0 mm 4 m/s 760 mmHg 38%
09:00 +30°C° 0 mm 4 m/s 760 mmHg 32%
10:00 +33°C° 0 mm 3 m/s 760 mmHg 27%
11:00 +34°C° 0 mm 3 m/s 760 mmHg 22%
12:00 +35°C° 0 mm 3 m/s 759 mmHg 20%
13:00 +36°C° 0 mm 4 m/s 759 mmHg 19%
14:00 +37°C° 0 mm 5 m/s 758 mmHg 18%
15:00 +36°C° 0 mm 5 m/s 758 mmHg 20%
16:00 +35°C° 0 mm 6 m/s 758 mmHg 22%
17:00 +35°C° 0 mm 7 m/s 758 mmHg 24%
18:00 +33°C° 0 mm 7 m/s 758 mmHg 29%
19:00 +32°C° 0 mm 6 m/s 759 mmHg 33%
20:00 +30°C° 0 mm 6 m/s 759 mmHg 38%
21:00 +29°C° 0 mm 6 m/s 760 mmHg 41%
22:00 +29°C° 0 mm 7 m/s 760 mmHg 44%
23:00 +28°C° 0 mm 7 m/s 761 mmHg 46%

Poimâine, 27 Februarie, Sâmbătă

Timp Temperatura Precipitaţii Vânt Presiune Umiditate
00:00 +27°C° 0 mm 7 m/s 761 mmHg 50%
01:00 +27°C° 0 mm 7 m/s 761 mmHg 54%
02:00 +26°C° 0 mm 6 m/s 761 mmHg 57%
03:00 +24°C° 0 mm 6 m/s 761 mmHg 61%
04:00 +24°C° 0 mm 6 m/s 762 mmHg 65%
05:00 +23°C° 0 mm 5 m/s 762 mmHg 69%
06:00 +25°C° 0 mm 5 m/s 762 mmHg 67%
07:00 +25°C° 0 mm 5 m/s 762 mmHg 65%
08:00 +25°C° 0 mm 5 m/s 763 mmHg 62%
09:00 +27°C° 0 mm 5 m/s 763 mmHg 54%
10:00 +29°C° 0 mm 4 m/s 763 mmHg 46%
11:00 +30°C° 0 mm 4 m/s 763 mmHg 38%
12:00 +32°C° 0 mm 5 m/s 762 mmHg 35%
13:00 +33°C° 0 mm 6 m/s 762 mmHg 32%
14:00 +34°C° 0 mm 7 m/s 761 mmHg 29%
15:00 +34°C° 0 mm 8 m/s 761 mmHg 32%
16:00 +33°C° 0 mm 8 m/s 761 mmHg 35%
17:00 +33°C° 0 mm 9 m/s 760 mmHg 38%
18:00 +32°C° 0 mm 9 m/s 761 mmHg 41%
19:00 +31°C° 0 mm 8 m/s 761 mmHg 45%
20:00 +31°C° 0 mm 8 m/s 762 mmHg 48%
21:00 +29°C° 0 mm 8 m/s 762 mmHg 52%
22:00 +28°C° 0 mm 9 m/s 762 mmHg 56%
23:00 +27°C° 0 mm 9 m/s 763 mmHg 59%

28 Februarie, Duminică

Timp Temperatura Precipitaţii Vânt Presiune Umiditate
00:00 +27°C° 0 mm 8 m/s 763 mmHg 63%
01:00 +26°C° 0 mm 8 m/s 762 mmHg 67%
02:00 +24°C° 0 mm 7 m/s 762 mmHg 70%
03:00 +24°C° 0 mm 7 m/s 763 mmHg 70%
04:00 +23°C° 0 mm 7 m/s 763 mmHg 69%
05:00 +23°C° 0 mm 7 m/s 763 mmHg 69%
06:00 +23°C° 0 mm 6 m/s 763 mmHg 67%
07:00 +24°C° 0 mm 6 m/s 763 mmHg 64%
08:00 +24°C° 0 mm 6 m/s 763 mmHg 62%
09:00 +27°C° 0 mm 5 m/s 763 mmHg 57%
10:00 +28°C° 0 mm 5 m/s 762 mmHg 51%
11:00 +30°C° 0 mm 4 m/s 762 mmHg 46%
12:00 +32°C° 0 mm 5 m/s 761 mmHg 43%
13:00 +33°C° 0 mm 5 m/s 760 mmHg 40%
14:00 +33°C° 0 mm 6 m/s 760 mmHg 37%
15:00 +33°C° 0 mm 7 m/s 759 mmHg 38%
16:00 +33°C° 0 mm 8 m/s 759 mmHg 38%
17:00 +33°C° 0 mm 8 m/s 758 mmHg 39%
18:00 +32°C° 0 mm 8 m/s 758 mmHg 41%
19:00 +31°C° 0 mm 8 m/s 759 mmHg 44%
20:00 +29°C° 0 mm 7 m/s 759 mmHg 47%
21:00 +29°C° 0 mm 7 m/s 759 mmHg 51%
22:00 +28°C° 0 mm 8 m/s 759 mmHg 56%
23:00 +27°C° 0 mm 8 m/s 759 mmHg 60%

1 Martie, Luni

Timp Temperatura Precipitaţii Vânt Presiune Umiditate
00:00 +26°C° 0 mm 7 m/s 759 mmHg 63%
01:00 +26°C° 0 mm 7 m/s 758 mmHg 66%
02:00 +24°C° 0 mm 6 m/s 758 mmHg 69%
03:00 +24°C° 0 mm 6 m/s 758 mmHg 71%
04:00 +23°C° 0 mm 5 m/s 758 mmHg 73%
05:00 +23°C° 0 mm 5 m/s 758 mmHg 75%
06:00 +25°C° 0 mm 5 m/s 758 mmHg 73%
07:00 +25°C° 0 mm 5 m/s 759 mmHg 71%
08:00 +26°C° 0 mm 5 m/s 759 mmHg 68%
09:00 +27°C° 0 mm 4 m/s 759 mmHg 62%
10:00 +29°C° 0 mm 3 m/s 758 mmHg 56%
11:00 +31°C° 0 mm 3 m/s 758 mmHg 49%
12:00 +33°C° 0 mm 3 m/s 757 mmHg 44%
13:00 +34°C° 0 mm 4 m/s 757 mmHg 39%
14:00 +35°C° 0 mm 4 m/s 756 mmHg 33%
15:00 +35°C° 0 mm 5 m/s 756 mmHg 33%
16:00 +34°C° 0 mm 5 m/s 755 mmHg 33%
17:00 +34°C° 0 mm 5 m/s 755 mmHg 32%
18:00 +33°C° 0 mm 5 m/s 756 mmHg 39%
19:00 +30°C° 0 mm 6 m/s 756 mmHg 47%
20:00 +29°C° 0 mm 6 m/s 756 mmHg 54%
21:00 +29°C° 0 mm 6 m/s 756 mmHg 56%
22:00 +28°C° 0 mm 6 m/s 757 mmHg 58%
23:00 +28°C° 0 mm 6 m/s 757 mmHg 60%

2 Martie, Marţi

Timp Temperatura Precipitaţii Vânt Presiune Umiditate
00:00 +28°C° 0 mm 6 m/s 757 mmHg 62%
01:00 +27°C° 0 mm 6 m/s 757 mmHg 65%
02:00 +27°C° 0 mm 6 m/s 757 mmHg 68%
03:00 +26°C° 0 mm 5 m/s 757 mmHg 70%
04:00 +26°C° 0 mm 5 m/s 757 mmHg 72%
05:00 +26°C° 0 mm 4 m/s 757 mmHg 73%
06:00 +26°C° 0 mm 4 m/s 758 mmHg 71%
07:00 +27°C° 0 mm 4 m/s 758 mmHg 69%
08:00 +27°C° 0 mm 4 m/s 758 mmHg 66%
09:00 +29°C° 0 mm 3 m/s 758 mmHg 59%
10:00 +31°C° 0 mm 3 m/s 758 mmHg 52%
11:00 +34°C° 0 mm 2 m/s 758 mmHg 45%
12:00 +35°C° 0 mm 3 m/s 757 mmHg 39%
13:00 +36°C° 0 mm 3 m/s 757 mmHg 34%
14:00 +37°C° 0 mm 4 m/s 756 mmHg 28%
15:00 +37°C° 0 mm 4 m/s 756 mmHg 28%
16:00 +36°C° 0 mm 5 m/s 756 mmHg 28%
17:00 +36°C° 0 mm 6 m/s 756 mmHg 28%
18:00 +34°C° 0 mm 6 m/s 756 mmHg 36%
19:00 +32°C° 0 mm 7 m/s 757 mmHg 44%
20:00 +29°C° 0 mm 7 m/s 757 mmHg 52%
21:00 +29°C° 0 mm 7 m/s 758 mmHg 52%
22:00 +29°C° 0 mm 6 m/s 758 mmHg 53%
23:00 +29°C° 0 mm 6 m/s 758 mmHg 53%
Arată mai mult

Formular de consimțământ

Meteoprog și furnizorii noștri de servicii pot stoca și accesa date personale, precum cookies, identificatori de dispozitiv sau alte tehnologii similare pe dispozitivul dumneavoastră și procesa astfel de date pentru a personaliza conținutul și reclamele, dar și pentru a oferi caracteristici de social media și pentru a analiza traficul.

  • Stocarea și/sau accesarea informațiilor pe dispozitivul dumneavoastră

    Cookies, identificatori de dispozitiv sau alte informații pot fi stocate sau accesate pe dispozitiv în scopurile indicate mai sus.

  • Reclame și conținut personalizat, evaluarea reclamelor și a conținutului, informații despre audiențe și dezvoltarea produselor

    Reclamele și conținutul pot fi personalizate pe baza unui profil. Pot fi adăugate date suplimentare pentru a personaliza mai bine reclamele și conținutul. Performanța reclamelor și conținutului poate fi măsurată. Pot fi obținute informații despre utilizatorii care au văzut reclamele și conținutul. Aceste date pot fi utilizate pentru a dezvolta sau îmbunătăți experiența utilizatorilor, sistemele și software-ul.

Dând clic pe ‘Sunt de acord’, permiteți utilizarea cookie-urilor menționate, a identificatorilor de dispozitiv, balizelor web sau altor tehnologii similare. Setările pot fi modificate din browser-ul dispozitivului dumneavoastră.

În anumite scopuri, interesele legitime pot prima asupra consimțământului. Puteți citi mai multe informații în acest sens în Politica privind Confidențialitatea Datelor și Cookie.